| time (UTC) | temp C | wind direction | speed KPH | gust KPH | rain 1hr cm | rain 24hr cm | rain mn cm | humidity % | barometer mb |
| 20260504231907 | 18 | 219 | 4.8 | 9.7 | 0.00 | 0.00 | 0.00 | 44 | 1009.7 |
| 20260504231404 | 18 | 230 | 8.0 | 8.0 | 0.00 | 0.00 | 0.00 | 42 | 1009.6 |
| 20260504230900 | 18 | 210 | 3.2 | 9.7 | 0.00 | 0.00 | 0.00 | 42 | 1009.3 |
| 20260504230357 | 18 | 236 | 6.4 | 6.4 | 0.00 | 0.00 | 0.00 | 42 | 1009.3 |
| 20260504225856 | 19 | 186 | 8.0 | 9.7 | 0.00 | 0.00 | 0.00 | 40 | 1009.3 |
| 20260504225352 | 19 | 235 | 6.4 | 9.7 | 0.00 | 0.00 | 0.00 | 41 | 1009.4 |
| 20260504224850 | 20 | 248 | 6.4 | 11.3 | 0.00 | 0.00 | 0.00 | 40 | 1009.2 |
| 20260504224346 | 19 | 256 | 6.4 | 9.7 | 0.00 | 0.00 | 0.00 | 41 | 1009.2 |
| 20260504223843 | 19 | 243 | 8.0 | 8.0 | 0.00 | 0.00 | 0.00 | 42 | 1009.5 |
| 20260504223339 | 20 | 223 | 1.6 | 4.8 | 0.00 | 0.00 | 0.00 | 41 | 1009.3 |
| 20260504222835 | 20 | 198 | 4.8 | 9.7 | 0.00 | 0.00 | 0.00 | 39 | 1009.1 |
| 20260504222332 | 20 | 226 | 4.8 | 14.5 | 0.00 | 0.00 | 0.00 | 39 | 1009.3 |
| 20260504221831 | 19 | 223 | 3.2 | 6.4 | 0.00 | 0.00 | 0.00 | 40 | 1009.1 |
| 20260504221327 | 20 | 43 | 1.6 | 9.7 | 0.00 | 0.00 | 0.00 | 41 | 1009.2 |
| 20260504220824 | 20 | 239 | 3.2 | 4.8 | 0.00 | 0.00 | 0.00 | 40 | 1009.3 |
| 20260504220321 | 20 | 250 | 4.8 | 9.7 | 0.00 | 0.00 | 0.00 | 38 | 1009.3 |
| 20260504215819 | 20 | 222 | 3.2 | 9.7 | 0.00 | 0.00 | 0.00 | 37 | 1009.4 |
| 20260504215315 | 20 | 275 | 6.4 | 9.7 | 0.00 | 0.00 | 0.00 | 37 | 1009.4 |
| 20260504214811 | 20 | 254 | 9.7 | 12.9 | 0.00 | 0.00 | 0.00 | 35 | 1009.4 |
| 20260504214308 | 20 | 249 | 4.8 | 9.7 | 0.00 | 0.00 | 0.00 | 36 | 1009.5 |
| 20260504213804 | 21 | 278 | 8.0 | 9.7 | 0.00 | 0.00 | 0.00 | 36 | 1009.5 |
| 20260504213300 | 21 | 255 | 6.4 | 14.5 | 0.00 | 0.00 | 0.00 | 36 | 1009.4 |
| 20260504212758 | 21 | 262 | 8.0 | 19.3 | 0.00 | 0.00 | 0.00 | 36 | 1009.6 |
| 20260504212254 | 21 | 239 | 9.7 | 14.5 | 0.00 | 0.00 | 0.00 | 35 | 1009.5 |
| 20260504211752 | 21 | 250 | 9.7 | 14.5 | 0.00 | 0.00 | 0.00 | 33 | 1009.4 |
| 20260504211247 | 20 | 251 | 6.4 | 14.5 | 0.00 | 0.00 | 0.00 | 35 | 1009.7 |
| 20260504210745 | 21 | 233 | 9.7 | 9.7 | 0.00 | 0.00 | 0.00 | 36 | 1009.5 |
| 20260504210242 | 21 | 215 | 16.1 | 17.7 | 0.00 | 0.00 | 0.00 | 36 | 1009.8 |
| 20260504205739 | 21 | 290 | 6.4 | 19.3 | 0.00 | 0.00 | 0.00 | 35 | 1009.7 |
| 20260504205237 | 21 | 210 | 3.2 | 14.5 | 0.00 | 0.00 | 0.00 | 36 | 1009.6 |
| 20260504204735 | 21 | 231 | 6.4 | 14.5 | 0.00 | 0.00 | 0.00 | 38 | 1009.8 |
| 20260504204233 | 21 | 66 | 1.6 | 12.9 | 0.00 | 0.00 | 0.00 | 38 | 1009.6 |
| 20260504203732 | 20 | 241 | 6.4 | 9.7 | 0.00 | 0.00 | 0.00 | 41 | 1009.7 |
| 20260504203229 | 20 | 225 | 8.0 | 14.5 | 0.00 | 0.00 | 0.00 | 37 | 1009.8 |
| 20260504202729 | 20 | 186 | 4.8 | 16.1 | 0.00 | 0.00 | 0.00 | 38 | 1009.8 |
| 20260504202226 | 19 | 227 | 6.4 | 12.9 | 0.00 | 0.00 | 0.00 | 39 | 1009.7 |
| 20260504201724 | 20 | 240 | 8.0 | 11.3 | 0.00 | 0.00 | 0.00 | 39 | 1009.8 |
| 20260504201221 | 20 | 204 | 6.4 | 9.7 | 0.00 | 0.00 | 0.00 | 38 | 1009.7 |
| 20260504200718 | 21 | 137 | 0.0 | 9.7 | 0.00 | 0.00 | 0.00 | 42 | 1009.9 |
| 20260504200214 | 20 | 255 | 9.7 | 20.9 | 0.00 | 0.00 | 0.00 | 36 | 1009.9 |
| 20260504195711 | 21 | 210 | 3.2 | 8.0 | 0.00 | 0.00 | 0.00 | 39 | 1009.8 |
| 20260504195207 | 19 | 232 | 6.4 | 14.5 | 0.00 | 0.00 | 0.00 | 38 | 1010.0 |
| 20260504194704 | 19 | 218 | 14.5 | 16.1 | 0.00 | 0.00 | 0.00 | 39 | 1010.1 |
| 20260504194200 | 19 | 214 | 9.7 | 12.9 | 0.00 | 0.00 | 0.00 | 37 | 1010.1 |
| 20260504193656 | 19 | 126 | 6.4 | 11.3 | 0.00 | 0.00 | 0.00 | 38 | 1010.1 |
| 20260504193154 | 20 | 215 | 9.7 | 9.7 | 0.00 | 0.00 | 0.00 | 37 | 1010.2 |
| 20260504192652 | 20 | 186 | 6.4 | 14.5 | 0.00 | 0.00 | 0.00 | 36 | 1010.3 |
| 20260504192150 | 19 | 195 | 3.2 | 11.3 | 0.00 | 0.00 | 0.00 | 40 | 1010.2 |
| 20260504191648 | 20 | 259 | 6.4 | 14.5 | 0.00 | 0.00 | 0.00 | 37 | 1010.5 |
| 20260504191144 | 20 | 240 | 11.3 | 19.3 | 0.00 | 0.00 | 0.00 | 37 | 1010.4 |
| 20260504190640 | 20 | 245 | 4.8 | 9.7 | 0.00 | 0.00 | 0.00 | 38 | 1010.6 |
| 20260504190137 | 18 | 236 | 3.2 | 8.0 | 0.00 | 0.00 | 0.00 | 38 | 1010.3 |
| 20260504185633 | 19 | 247 | 9.7 | 9.7 | 0.00 | 0.00 | 0.00 | 37 | 1010.5 |
| 20260504185130 | 20 | 307 | 8.0 | 14.5 | 0.00 | 0.00 | 0.00 | 36 | 1010.6 |
| 20260504184626 | 20 | 172 | 9.7 | 19.3 | 0.00 | 0.00 | 0.00 | 38 | 1010.5 |
| 20260504184121 | 21 | 262 | 4.8 | 6.4 | 0.00 | 0.00 | 0.00 | 36 | 1010.7 |
| 20260504183619 | 21 | 216 | 4.8 | 11.3 | 0.00 | 0.00 | 0.00 | 39 | 1010.7 |
| 20260504183116 | 20 | 234 | 6.4 | 11.3 | 0.00 | 0.00 | 0.00 | 36 | 1010.7 |
| 20260504182614 | 20 | 228 | 17.7 | 20.9 | 0.00 | 0.00 | 0.00 | 36 | 1010.7 |
| 20260504182111 | 20 | 272 | 3.2 | 9.7 | 0.00 | 0.00 | 0.00 | 34 | 1010.8 |
| 20260504181608 | 20 | 188 | 11.3 | 14.5 | 0.00 | 0.00 | 0.00 | 37 | 1011.0 |
| 20260504181105 | 21 | 221 | 1.6 | 9.7 | 0.00 | 0.00 | 0.00 | 37 | 1010.7 |
| 20260504180604 | 21 | 250 | 8.0 | 11.3 | 0.00 | 0.00 | 0.00 | 34 | 1010.7 |
| 20260504180103 | 20 | 202 | 4.8 | 17.7 | 0.00 | 0.00 | 0.00 | 35 | 1011.1 |
| 20260504175600 | 20 | 256 | 3.2 | 16.1 | 0.00 | 0.00 | 0.00 | 37 | 1011.1 |
| 20260504175056 | 19 | 265 | 8.0 | 16.1 | 0.00 | 0.00 | 0.00 | 36 | 1011.0 |
| 20260504174555 | 20 | 265 | 6.4 | 8.0 | 0.00 | 0.00 | 0.00 | 37 | 1011.1 |
| 20260504174051 | 20 | 213 | 16.1 | 22.5 | 0.00 | 0.00 | 0.00 | 36 | 1011.1 |
| 20260504173548 | 19 | 251 | 9.7 | 17.7 | 0.00 | 0.00 | 0.00 | 38 | 1011.3 |
| 20260504173045 | 20 | 288 | 4.8 | 14.5 | 0.00 | 0.00 | 0.00 | 36 | 1011.2 |
| 20260504172541 | 20 | 261 | 8.0 | 12.9 | 0.00 | 0.00 | 0.00 | 35 | 1011.3 |
| 20260504172038 | 20 | 235 | 6.4 | 11.3 | 0.00 | 0.00 | 0.00 | 35 | 1011.2 |
| 20260504171535 | 19 | 299 | 6.4 | 14.5 | 0.00 | 0.00 | 0.00 | 41 | 1011.3 |
| 20260504171032 | 18 | 252 | 6.4 | 16.1 | 0.00 | 0.00 | 0.00 | 36 | 1011.6 |
| 20260504170528 | 19 | 250 | 4.8 | 6.4 | 0.00 | 0.00 | 0.00 | 37 | 1011.6 |
| 20260504150912 | 16 | 258 | 8.0 | 14.5 | 0.00 | 0.00 | 0.00 | 41 | 1013.0 |
| 20260504150409 | 16 | 238 | 9.7 | 9.7 | 0.00 | 0.00 | 0.00 | 42 | 1012.9 |
| 20260504140835 | 15 | 242 | 11.3 | 17.7 | 0.00 | 0.00 | 0.00 | 43 | 1013.2 |
| 20260504140330 | 15 | 256 | 6.4 | 14.5 | 0.00 | 0.00 | 0.00 | 42 | 1013.2 |
| 20260504130800 | 13 | 251 | 8.0 | 8.0 | 0.00 | 0.00 | 0.00 | 47 | 1013.6 |
| 20260504130256 | 12 | 231 | 3.2 | 4.8 | 0.00 | 0.00 | 0.00 | 51 | 1013.9 |
| 20260504120219 | 6 | 135 | 3.2 | 6.4 | 0.00 | 0.00 | 0.00 | 74 | 1014.3 |
| 20260504110647 | 0 | 269 | 0.0 | 3.2 | 0.00 | 0.00 | 0.00 | 95 | 1014.3 |
| 20260504110143 | 0 | 73 | 3.2 | 3.2 | 0.00 | 0.00 | 0.00 | 95 | 1014.1 |
| 20260504100609 | 0 | 313 | 0.0 | 4.8 | 0.00 | 0.00 | 0.00 | 94 | 1014.0 |
| 20260504100107 | 0 | 330 | 3.2 | 4.8 | 0.00 | 0.00 | 0.00 | 95 | 1013.9 |
| 20260504082003 | 0 | 235 | 0.0 | 3.2 | 0.00 | 0.00 | 0.00 | 92 | 1014.0 |
| 20260504081500 | 0 | 299 | 0.0 | 1.6 | 0.00 | 0.00 | 0.00 | 92 | 1014.0 |
| 20260504080955 | 0 | 243 | 0.0 | 3.2 | 0.00 | 0.00 | 0.00 | 92 | 1014.0 |
| 20260504080452 | 0 | 273 | 1.6 | 1.6 | 0.00 | 0.00 | 0.00 | 92 | 1014.0 |
| 20260504050305 | 1 | 315 | 0.0 | 0.0 | 0.00 | 0.00 | 0.00 | 86 | 1013.5 |
| 20260504045803 | 1 | 284 | 3.2 | 3.2 | 0.00 | 0.00 | 0.00 | 85 | 1013.4 |
| 20260504045304 | 1 | 304 | 0.0 | 1.6 | 0.00 | 0.00 | 0.00 | 85 | 1013.3 |
| 20260504044800 | 1 | 291 | 0.0 | 1.6 | 0.00 | 0.00 | 0.00 | 84 | 1013.3 |
| 20260504044257 | 1 | 311 | 0.0 | 1.6 | 0.00 | 0.00 | 0.00 | 84 | 1013.4 |
| 20260504043754 | 1 | 286 | 1.6 | 3.2 | 0.00 | 0.00 | 0.00 | 84 | 1013.4 |
| 20260504043251 | 1 | 341 | 1.6 | 3.2 | 0.00 | 0.00 | 0.00 | 84 | 1013.2 |
| 20260504042749 | 2 | 11 | 0.0 | 1.6 | 0.00 | 0.00 | 0.00 | 84 | 1013.3 |
| 20260504042245 | 1 | 332 | 3.2 | 4.8 | 0.00 | 0.00 | 0.00 | 83 | 1013.3 |
| 20260504041742 | 2 | 3 | 0.0 | 3.2 | 0.00 | 0.00 | 0.00 | 85 | 1013.1 |
| 20260504041238 | 2 | 89 | 0.0 | 0.0 | 0.00 | 0.00 | 0.00 | 84 | 1013.1 |
| 20260504040734 | 2 | 60 | 0.0 | 0.0 | 0.00 | 0.00 | 0.00 | 85 | 1013.1 |
| 20260504040232 | 2 | 13 | 0.0 | 1.6 | 0.00 | 0.00 | 0.00 | 86 | 1012.9 |
| 20260504035727 | 2 | 4 | 0.0 | 1.6 | 0.00 | 0.00 | 0.00 | 86 | 1012.9 |
| 20260504035225 | 2 | 35 | 1.6 | 1.6 | 0.00 | 0.00 | 0.00 | 85 | 1012.9 |
| 20260504034722 | 2 | 304 | 0.0 | 0.0 | 0.00 | 0.00 | 0.00 | 85 | 1013.0 |
| 20260504034219 | 2 | 8 | 0.0 | 1.6 | 0.00 | 0.00 | 0.00 | 84 | 1012.9 |
| 20260504033717 | 2 | 339 | 0.0 | 0.0 | 0.00 | 0.00 | 0.00 | 84 | 1012.9 |
| 20260504033214 | 2 | 53 | 0.0 | 1.6 | 0.00 | 0.00 | 0.00 | 84 | 1013.0 |
| 20260504032711 | 2 | 25 | 0.0 | 1.6 | 0.00 | 0.00 | 0.00 | 83 | 1012.9 |
| 20260504032208 | 2 | 19 | 0.0 | 3.2 | 0.00 | 0.00 | 0.00 | 83 | 1012.9 |
| 20260504031705 | 2 | 34 | 0.0 | 1.6 | 0.00 | 0.00 | 0.00 | 82 | 1013.1 |
| 20260504031202 | 2 | 52 | 3.2 | 3.2 | 0.00 | 0.00 | 0.00 | 82 | 1013.0 |
| 20260504030658 | 2 | 38 | 0.0 | 0.0 | 0.00 | 0.00 | 0.00 | 81 | 1013.0 |
| 20260504030155 | 2 | 131 | 0.0 | 3.2 | 0.00 | 0.00 | 0.00 | 81 | 1012.9 |
| 20260504025652 | 2 | 66 | 0.0 | 0.0 | 0.00 | 0.00 | 0.00 | 80 | 1013.0 |
| 20260504025148 | 2 | 38 | 0.0 | 0.0 | 0.00 | 0.00 | 0.00 | 80 | 1012.9 |
| 20260504024646 | 2 | 48 | 0.0 | 1.6 | 0.00 | 0.00 | 0.00 | 81 | 1013.2 |
| 20260504024142 | 2 | 326 | 0.0 | 0.0 | 0.00 | 0.00 | 0.00 | 80 | 1013.1 |
| 20260504023639 | 2 | 76 | 0.0 | 0.0 | 0.00 | 0.00 | 0.00 | 80 | 1013.2 |
| 20260504023135 | 2 | 76 | 0.0 | 0.0 | 0.00 | 0.00 | 0.00 | 80 | 1013.1 |
| 20260504022632 | 2 | 10 | 1.6 | 1.6 | 0.00 | 0.00 | 0.00 | 80 | 1013.2 |
| 20260504022127 | 2 | 80 | 0.0 | 0.0 | 0.00 | 0.00 | 0.00 | 79 | 1013.1 |
| 20260504021626 | 2 | 80 | 0.0 | 0.0 | 0.00 | 0.00 | 0.00 | 78 | 1013.0 |
| 20260504021121 | 2 | 32 | 0.0 | 1.6 | 0.00 | 0.00 | 0.00 | 78 | 1013.1 |
| 20260504020619 | 3 | 55 | 0.0 | 1.6 | 0.00 | 0.00 | 0.00 | 76 | 1013.1 |
| 20260504020115 | 3 | 76 | 0.0 | 0.0 | 0.00 | 0.00 | 0.00 | 76 | 1013.1 |
| 20260504015611 | 3 | 48 | 0.0 | 0.0 | 0.00 | 0.00 | 0.00 | 75 | 1013.1 |
| 20260504015108 | 3 | 49 | 0.0 | 0.0 | 0.00 | 0.00 | 0.00 | 74 | 1013.0 |
| 20260504014604 | 3 | 49 | 0.0 | 0.0 | 0.00 | 0.00 | 0.00 | 73 | 1013.1 |
| 20260504014101 | 3 | 66 | 0.0 | 0.0 | 0.00 | 0.00 | 0.00 | 73 | 1013.0 |
| 20260504013559 | 3 | 315 | 0.0 | 0.0 | 0.00 | 0.00 | 0.00 | 72 | 1012.9 |
| 20260504013055 | 4 | 345 | 0.0 | 0.0 | 0.00 | 0.00 | 0.00 | 72 | 1012.8 |
| 20260504012553 | 4 | 43 | 0.0 | 0.0 | 0.00 | 0.00 | 0.00 | 72 | 1012.8 |
| 20260504012050 | 5 | 19 | 0.0 | 0.0 | 0.00 | 0.00 | 0.00 | 71 | 1012.8 |
| 20260504011547 | 5 | 89 | 0.0 | 1.6 | 0.00 | 0.00 | 0.00 | 69 | 1012.9 |
| 20260504011043 | 5 | 63 | 0.0 | 0.0 | 0.00 | 0.00 | 0.00 | 69 | 1012.9 |
| 20260504010539 | 5 | 191 | 0.0 | 1.6 | 0.00 | 0.00 | 0.00 | 68 | 1012.7 |
| 20260504010036 | 5 | 32 | 0.0 | 0.0 | 0.00 | 0.00 | 0.00 | 66 | 1012.7 |
| 20260504005532 | 6 | 44 | 0.0 | 0.0 | 0.00 | 0.00 | 0.00 | 64 | 1012.8 |
| 20260504005030 | 6 | 329 | 0.0 | 0.0 | 0.00 | 0.00 | 0.00 | 64 | 1012.7 |
| 20260504004527 | 6 | 89 | 0.0 | 0.0 | 0.00 | 0.00 | 0.00 | 63 | 1012.6 |
| 20260504004024 | 6 | 89 | 0.0 | 0.0 | 0.00 | 0.00 | 0.00 | 62 | 1012.5 |
| 20260504003520 | 7 | 76 | 0.0 | 1.6 | 0.00 | 0.00 | 0.00 | 61 | 1012.3 |
| 20260504003017 | 7 | 120 | 0.0 | 1.6 | 0.00 | 0.00 | 0.00 | 59 | 1012.2 |
| 20260504002514 | 7 | 224 | 0.0 | 1.6 | 0.00 | 0.00 | 0.00 | 63 | 1012.4 |
| 20260504002011 | 7 | 243 | 0.0 | 0.0 | 0.00 | 0.00 | 0.00 | 61 | 1012.3 |
| 20260504001509 | 8 | 76 | 0.0 | 0.0 | 0.00 | 0.00 | 0.00 | 55 | 1012.1 |
| 20260504001005 | 8 | 353 | 0.0 | 0.0 | 0.00 | 0.00 | 0.00 | 52 | 1012.2 |
| 20260504000502 | 9 | 233 | 0.0 | 0.0 | 0.00 | 0.00 | 0.00 | 51 | 1012.0 |
| 20260503235959 | 10 | 355 | 1.6 | 4.8 | 0.00 | 0.00 | 0.00 | 50 | 1012.1 |
| 20260503235457 | 10 | 299 | 0.0 | 3.2 | 0.00 | 0.00 | 0.00 | 50 | 1012.0 |
| 20260503234954 | 10 | 297 | 3.2 | 4.8 | 0.00 | 0.00 | 0.00 | 47 | 1012.0 |
| 20260503234452 | 10 | 298 | 0.0 | 4.8 | 0.00 | 0.00 | 0.00 | 51 | 1012.0 |
| 20260503233950 | 10 | 281 | 4.8 | 4.8 | 0.00 | 0.00 | 0.00 | 46 | 1011.9 |
| 20260503233446 | 10 | 257 | 4.8 | 9.7 | 0.00 | 0.00 | 0.00 | 45 | 1012.0 |
| 20260503232942 | 11 | 243 | 4.8 | 9.7 | 0.00 | 0.00 | 0.00 | 44 | 1012.1 |
| 20260503232439 | 11 | 213 | 3.2 | 6.4 | 0.00 | 0.00 | 0.00 | 44 | 1012.1 |